Other Public Products
Issued by NWS Charleston, SC

Current Version | Previous Version | Text Only | Print | Product List | Glossary Off
Versions: 1 2 3 4 5 6 7 8 9 10 11 12 13 14 15 16 17 18 19 20 21 22 23 24 25 26 27 28 29 30 31 32 33 34 35 36 37 38 39 40 41 42 43 44 45 46 47 48 49 50

000
FPUS82 KCHS 270112
OPUCHS

TEST...KCHS/KSAV Gateway Observations...TEST
National Weather Service Charleston SC
900 PM EDT FRI MAY 26 2017

NOTE: "fair" indicates few or no clouds below 12,000 feet with no
significant weather and/or obstructions to visibility.

SCZ050-WAZ558-NCZ071-TXZ119-213-PAZ071-DCZ001-FLZ074-172-MI076-
NYZ176-178-MAZ016-IL014-TNZ027-NJZ106-GAZ044-MD014-270200-

...Gateway Observations for Charleston International...

CITY           SKY/WX    TMP DP  RH WIND       PRES   REMARKS
Chas Airport   PTCLDY    74  56  53 W5        29.96S
Seattle        MOSUNNY   79  43  27 N10       29.96S
Charlotte      PTCLDY    71  57  61 SW6       29.95R
Dallas DFW     CLOUDY    86  74  67 S15       29.75R HX  94
Dallas Love    CLOUDY    86  73  65 S14G24    29.76R HX  93
Philladelphia  CLOUDY    71  52  50 W14       29.80R
Wash National  PTCLDY    70  55  59 N10       29.88R
Baltimore      PTCLDY    67  55  65 W8        29.85R
Miami          MOCLDY    83  76  79 E9        30.04R HX  91
Detroit        CLOUDY    67  52  58 SE3       29.88S
Newark         MOCLDY    70  57  63 W9        29.74R
Laguardia      PTCLDY    70  52  52 NW18G24   29.72R
J F K          MOCLDY    72  58  61 W14G21    29.73R
Boston Logan   DRIZZLE   53  52  96 E8        29.69R FOG
Ft. Lauderdale PTCLDY    81  75  82 E10       30.03R
Chicago O`Hare LGT RAIN  56  53  90 NE8       29.83R
Chicago Midway DRIZZLE   59  56  89 NE14      29.81S
Houston Bush   CLOUDY    83  74  74 S10       29.88R
Houston Hobby  CLOUDY    81  74  79 S10       29.87S
Nashville      PTCLDY    81  58  45 SW7       29.89R
Atlanta        PTCLDY    77  60  55 SW7       29.99S

$$

GAZ044-118-TXZ119-213-NCZ071-DCZ001-MDZ014-506-PAZ021-071-NJZ106-
NYZ176-178-MAZ106-OHZ011-021-055-MIZ076-KYZ091-ILZ014-INZ047-
MNZ060-ONZ431-270200-

...Gateway Observations for Savannah International...

CITY           SKY/WX    TMP DP  RH WIND       PRES   REMARKS
Savannah Arpt  MOCLDY    77  54  44 SW5       29.98S
Atlanta        PTCLDY    77  60  55 SW7       29.99S
Charlotte      PTCLDY    71  57  61 SW6       29.95R
Dallas DFW     CLOUDY    86  74  67 S15       29.75R HX  94
Houston Bush   CLOUDY    83  74  74 S10       29.88R
Wash National  PTCLDY    70  55  59 N10       29.88R
Wash Dulles    PTCLDY    69  53  56 N6        29.87R
Baltimore      PTCLDY    67  55  65 W8        29.85R
Philadelphia   CLOUDY    71  52  50 W14       29.80R
Newark         MOCLDY    70  57  63 W9        29.74R
Laguardia      PTCLDY    70  52  52 NW18G24   29.72R
J F K          MOCLDY    72  58  61 W14G21    29.73R
Boston         DRIZZLE   53  52  96 E8        29.69R FOG
Pittsburg      PTCLDY    63  54  72 N5        29.90S
Akron          MOCLDY    61  54  77 CALM      29.92R
Cleveland      MOCLDY    65  52  62 NE5       29.91R
Cincinnati     CLOUDY    72  63  73 SE8       29.86F
Columbus       CLEAR     69  59  70 SE3       29.87S
Detroit        CLOUDY    67  52  58 SE3       29.88S
Chicago O`Hare LGT RAIN  56  53  90 NE8       29.83R
Minneapolis    PTCLDY    75  48  38 W13       29.74R
Indianapolis   TSTM      74  63  68 S12       29.79R
Toronto Canada LGT RAIN  59  55  88 NW6       29.83S

$$




USA.gov is the U.S. government's official web portal to all federal, state and local government web resources and services.